TimeCST,TemperatureF,Dew PointF,Humidity,Sea Level PressureIn,VisibilityMPH,Wind Direction,Wind SpeedMPH,Gust SpeedMPH,PrecipitationIn,Events,Conditions,WindDirDegrees,DateUTC
12:00 AM,77,76,95,29.92,12,Calm,Calm,,,,Scattered Clouds,,2013-11-17 06:00:00
3:00 AM,76,76,99,29.88,12,Calm,Calm,,,,Mostly Cloudy,,2013-11-17 09:00:00
5:00 AM,77.0,75.2,94,29.89,6.2,Calm,Calm,-,N/A,,Partly Cloudy,0,2013-11-17 11:00:00
6:00 AM,76,75,94,29.92,12,Calm,Calm,,,,Mostly Cloudy,,2013-11-17 12:00:00
7:00 AM,77.0,75.2,94,29.92,6.2,Calm,Calm,-,N/A,,Scattered Clouds,0,2013-11-17 13:00:00
8:00 AM,80.6,75.2,84,29.95,6.2,Calm,Calm,-,N/A,,Partly Cloudy,0,2013-11-17 14:00:00
9:00 AM,85,78,73,29.97,12,East,6.9,,,,Scattered Clouds,90,2013-11-17 15:00:00
9:00 AM,84.2,77.0,79,29.96,6.2,East,6.9,-,N/A,,Partly Cloudy,90,2013-11-17 15:00:00
10:00 AM,84.2,75.2,74,29.96,6.2,East,6.9,-,N/A,,Scattered Clouds,90,2013-11-17 16:00:00
11:00 AM,84.2,77.0,79,29.94,6.2,East,5.8,-,N/A,,Scattered Clouds,90,2013-11-17 17:00:00
12:00 PM,85,77,71,29.91,14,East,9.2,,,,Partly Cloudy,80,2013-11-17 18:00:00
12:00 PM,86.0,77.0,74,29.91,6.2,East,9.2,-,N/A,,Scattered Clouds,80,2013-11-17 18:00:00
1:00 PM,86.0,75.2,70,29.88,6.2,East,9.2,-,N/A,,Scattered Clouds,90,2013-11-17 19:00:00
2:00 PM,84.2,77.0,79,29.86,6.2,East,8.1,-,N/A,,Scattered Clouds,90,2013-11-17 20:00:00
3:00 PM,84,76,72,29.86,14,East,5.8,,,,Partly Cloudy,90,2013-11-17 21:00:00
3:00 PM,84.2,77.0,79,29.86,6.2,East,5.8,-,N/A,,Scattered Clouds,90,2013-11-17 21:00:00
4:00 PM,84.2,77.0,79,29.86,6.2,East,4.6,-,N/A,,Partly Cloudy,80,2013-11-17 22:00:00
5:00 PM,82.4,77.0,84,29.87,6.2,East,4.6,-,N/A,,Partly Cloudy,80,2013-11-17 23:00:00
6:00 PM,80,76,84,29.89,12,East,3.5,,,,Scattered Clouds,90,2013-11-18 00:00:00
6:00 PM,80.6,77.0,89,29.88,6.2,East,3.5,-,N/A,,Partly Cloudy,90,2013-11-18 00:00:00
9:00 PM,78,76,92,29.96,12,East,9.2,,,,Scattered Clouds,90,2013-11-18 03:00:00